Grand Forks, ND

1:51 AM CDT on May 29, 2017 (GMT -0500)
Grand Forks International

Weather History for KGFK - November, 2011

Change the Weather History Date:

Friday, November 18, 2011

  Actual Average Record
Temperature  
Mean Temperature 23 °F 24 °F  
Max Temperature 29 °F 33 °F 55 °F (1963)
Min Temperature 16 °F 16 °F -9 °F (1996)
Degree Days  
Heating Degree Days 42 41  
Month to date heating degree days 559 636  
Since 1 July heating degree days 1254 1667  
Cooling Degree Days 0 0  
Month to date cooling degree days 0 0  
Year to date cooling degree days 538 379  
Moisture  
Dew Point 16 °F    
Average Humidity 80    
Maximum Humidity 92    
Minimum Humidity 68    
Precipitation  
Precipitation 0.00 in 0.03 in 0.56 in (1952)
Month to date precipitation 0.07 0.67  
Year to date precipitation 19.02 19.92  
Snow  
Snow 0.00 in 0.30 in 12.40 in (1998)
Month to date snowfall 0.8 3.9  
Since 1 July snowfall 0.8 5.4  
Since 1 September snowfall 0.8 5.4  
Snow Depth 1.00 in    
Sea Level Pressure  
Sea Level Pressure 29.74 in    
Wind  
Wind Speed 8 mph (North)    
Max Wind Speed 20 mph    
Max Gust Speed 24 mph    
Visibility 10 miles    
Events      
T = Trace of Precipitation, MM = Missing Value Source: NWS Daily Summary

Daily Weather History Graph

Daily Weather History Graph

Search for Another Location

Airport or City:

Trip Planner

Search our weather history database for the weather conditions in past years. The results will help you decide how hot, cold, wet, or windy it might be!

Date:

Astronomy

Nov. 18, 2011 Rise Set
Actual Time 7:39 AM CST 4:48 PM CST
Civil Twilight 7:04 AM CST 5:22 PM CST
Nautical Twilight 6:27 AM CST 6:00 PM CST
Astronomical Twilight 5:50 AM CST 6:36 PM CST
Moon No Moon Rise 1:05 PM CST (11/18)
Length of Visible Light 10h 17m
Length of Day
9h 09m
Waning Gibbous, 49% of the Moon is Illuminated
Nov 18
Waning Gibbous
Nov 25
New
Dec 2
First Quarter
Dec 10
Full
Dec 17
Last Quarter

Hourly Weather History & Observations

Time (CST) Temp. Windchill Dew Point Humidity Pressure Visibility Wind Dir Wind Speed Gust Speed Precip Events Conditions
12:53 AM 24.1 °F 13.7 °F 15.1 °F 69% 29.73 in 10.0 mi East 10.4 mph - N/A   Overcast
1:53 AM 24.1 °F 12.5 °F 15.1 °F 69% 29.70 in 10.0 mi East 12.7 mph - N/A   Overcast
2:53 AM 23.0 °F 13.1 °F 14.0 °F 68% 29.69 in 10.0 mi East 9.2 mph - N/A   Scattered Clouds
3:53 AM 21.0 °F 11.4 °F 14.0 °F 74% 29.69 in 10.0 mi East 8.1 mph - N/A   Partly Cloudy
4:53 AM 21.9 °F 11.7 °F 14.0 °F 72% 29.68 in 10.0 mi East 9.2 mph - N/A   Scattered Clouds
5:53 AM 21.2 °F 10.1 °F 14.0 °F 74% 29.64 in 10.0 mi East 10.4 mph - N/A   Mostly Cloudy
6:53 AM 21.9 °F 11.7 °F 14.0 °F 72% 29.68 in 10.0 mi East 9.2 mph - N/A   Mostly Cloudy
7:53 AM 21.9 °F 14.5 °F 15.1 °F 75% 29.70 in 10.0 mi ENE 5.8 mph - N/A   Overcast
8:53 AM 23.0 °F 13.9 °F 16.0 °F 74% 29.67 in 10.0 mi ENE 8.1 mph - N/A   Overcast
9:53 AM 24.1 °F 17.0 °F 16.0 °F 71% 29.71 in 10.0 mi East 5.8 mph - N/A   Overcast
10:53 AM 26.1 °F 21.9 °F 17.1 °F 69% 29.71 in 10.0 mi ENE 3.5 mph - N/A   Overcast
11:53 AM 27.0 °F 23.0 °F 17.1 °F 66% 29.69 in 10.0 mi NE 3.5 mph - N/A   Overcast
12:53 PM 27.0 °F - 17.1 °F 66% 29.70 in 10.0 mi Calm Calm - N/A   Overcast
1:53 PM 28.0 °F 21.7 °F 19.0 °F 69% 29.69 in 10.0 mi NNW 5.8 mph - N/A   Overcast
2:53 PM 28.0 °F 21.7 °F 19.0 °F 69% 29.70 in 10.0 mi NNW 5.8 mph - N/A   Mostly Cloudy
3:53 PM 25.0 °F 16.3 °F 18.0 °F 75% 29.74 in 10.0 mi NW 8.1 mph - N/A   Mostly Cloudy
4:53 PM 21.9 °F 14.5 °F 17.1 °F 82% 29.76 in 10.0 mi NW 5.8 mph - N/A   Mostly Cloudy
5:53 PM 21.0 °F 13.4 °F 17.1 °F 85% 29.79 in 10.0 mi WNW 5.8 mph - N/A   Mostly Cloudy
6:53 PM 18.0 °F 8.7 °F 15.1 °F 88% 29.81 in 10.0 mi West 6.9 mph - N/A   Mostly Cloudy
7:19 PM 19.4 °F 10.4 °F 15.8 °F 86% 29.76 in 10.0 mi WNW 6.9 mph - N/A   Mostly Cloudy
7:53 PM 19.9 °F 11.1 °F 16.0 °F 85% 29.81 in 10.0 mi WNW 6.9 mph - N/A   Mostly Cloudy
8:22 PM 17.6 °F 9.3 °F 15.8 °F 93% 29.77 in 10.0 mi WNW 5.8 mph - N/A   Mostly Cloudy
8:53 PM 19.0 °F 10.0 °F 15.1 °F 85% 29.83 in 10.0 mi WNW 6.9 mph - N/A   Mostly Cloudy
9:53 PM 17.1 °F 6.6 °F 14.0 °F 88% 29.86 in 10.0 mi WNW 8.1 mph - N/A   Mostly Cloudy
10:53 PM 19.0 °F 6.8 °F 15.1 °F 85% 29.88 in 10.0 mi WNW 11.5 mph - N/A   Mostly Cloudy
11:43 PM 19.4 °F 5.0 °F 15.8 °F 86% 29.83 in 10.0 mi NNW 16.1 mph - N/A   Mostly Cloudy
11:53 PM 19.9 °F 5.7 °F 15.1 °F 81% 29.89 in 10.0 mi NNW 16.1 mph 24.2 mph N/A   Mostly Cloudy